• In Portugal
  • List of Countries
  • For 7 days
  • Water Temperature
  • Satellite Maps
  • Weather Map
  • Weather Widgets
  • user-avatar
    Login

    Hourly Weather Warszyn

    Today, 20 October, Saturday

    Time Temperature Precipitation Wind Pressure Humidity
    00:00 +8°C° 0 mm 1 mps 755 mmHg 72%
    01:00 +8°C° 0 mm 1 mps 755 mmHg 73%
    02:00 +8°C° 0 mm 1 mps 755 mmHg 74%
    03:00 +8°C° 0 mm 1 mps 755 mmHg 75%
    04:00 +8°C° 0 mm 1 mps 755 mmHg 76%
    05:00 +8°C° 0 mm 1 mps 755 mmHg 78%
    06:00 +8°C° 0 mm 1 mps 755 mmHg 81%
    07:00 +7°C° 0 mm 2 mps 755 mmHg 83%
    08:00 +8°C° 0 mm 2 mps 755 mmHg 78%
    09:00 +10°C° 0 mm 2 mps 755 mmHg 72%
    10:00 +11°C° 0 mm 3 mps 756 mmHg 66%
    11:00 +11°C° 0.1 mm 3 mps 756 mmHg 65%
    12:00 +11°C° 0.1 mm 3 mps 756 mmHg 64%
    13:00 +11°C° 0.1 mm 3 mps 756 mmHg 63%
    14:00 +11°C° 0.1 mm 3 mps 755 mmHg 64%
    15:00 +11°C° 0.1 mm 3 mps 755 mmHg 65%
    16:00 +10°C° 0.1 mm 3 mps 755 mmHg 66%
    17:00 +9°C° 0 mm 2 mps 755 mmHg 72%
    18:00 +9°C° 0 mm 2 mps 755 mmHg 77%
    19:00 +8°C° 0 mm 2 mps 755 mmHg 82%
    20:00 +8°C° 0.1 mm 2 mps 755 mmHg 85%
    21:00 +8°C° 0.1 mm 2 mps 756 mmHg 87%
    22:00 +8°C° 0.1 mm 2 mps 756 mmHg 89%
    23:00 +7°C° 0 mm 2 mps 756 mmHg 91%

    Tomorrow, 21 October, Sunday

    Time Temperature Precipitation Wind Pressure Humidity
    00:00 +7°C° 0 mm 2 mps 756 mmHg 93%
    01:00 +7°C° 0 mm 1 mps 756 mmHg 95%
    02:00 +7°C° 0 mm 1 mps 756 mmHg 95%
    03:00 +7°C° 0 mm 1 mps 756 mmHg 95%
    04:00 +7°C° 0 mm 1 mps 756 mmHg 95%
    05:00 +7°C° 0 mm 1 mps 756 mmHg 95%
    06:00 +7°C° 0 mm 1 mps 757 mmHg 95%
    07:00 +7°C° 0 mm 1 mps 757 mmHg 95%
    08:00 +9°C° 0 mm 1 mps 757 mmHg 88%
    09:00 +11°C° 0 mm 1 mps 757 mmHg 81%
    10:00 +12°C° 0 mm 1 mps 758 mmHg 74%
    11:00 +13°C° 0 mm 1 mps 758 mmHg 69%
    12:00 +14°C° 0 mm 1 mps 758 mmHg 64%
    13:00 +15°C° 0 mm 1 mps 758 mmHg 59%
    14:00 +14°C° 0 mm 1 mps 757 mmHg 61%
    15:00 +14°C° 0 mm 1 mps 757 mmHg 63%
    16:00 +13°C° 0 mm 1 mps 757 mmHg 65%
    17:00 +12°C° 0 mm 1 mps 757 mmHg 69%
    18:00 +11°C° 0 mm 1 mps 757 mmHg 73%
    19:00 +10°C° 0 mm 1 mps 757 mmHg 77%
    20:00 +10°C° 0 mm 1 mps 757 mmHg 80%
    21:00 +9°C° 0 mm 1 mps 757 mmHg 82%
    22:00 +8°C° 0 mm 2 mps 757 mmHg 85%
    23:00 +8°C° 0 mm 2 mps 757 mmHg 86%

    Day after tomorrow, 22 October, Monday

    Time Temperature Precipitation Wind Pressure Humidity
    00:00 +7°C° 0 mm 2 mps 756 mmHg 87%
    01:00 +7°C° 0 mm 2 mps 756 mmHg 88%
    02:00 +7°C° 0 mm 2 mps 756 mmHg 89%
    03:00 +7°C° 0 mm 3 mps 755 mmHg 89%
    04:00 +5°C° 0 mm 3 mps 755 mmHg 89%
    05:00 +5°C° 0 mm 3 mps 755 mmHg 89%
    06:00 +5°C° 0 mm 3 mps 755 mmHg 89%
    07:00 +5°C° 0 mm 3 mps 754 mmHg 89%
    08:00 +6°C° 0 mm 4 mps 754 mmHg 83%
    09:00 +8°C° 0 mm 4 mps 754 mmHg 76%
    10:00 +10°C° 0 mm 4 mps 754 mmHg 70%
    11:00 +10°C° 0.2 mm 4 mps 754 mmHg 73%
    12:00 +10°C° 0.2 mm 4 mps 754 mmHg 75%
    13:00 +10°C° 0.2 mm 4 mps 754 mmHg 78%
    14:00 +8°C° 0.5 mm 4 mps 754 mmHg 79%
    15:00 +8°C° 0.5 mm 4 mps 754 mmHg 81%
    16:00 +8°C° 0.5 mm 4 mps 754 mmHg 82%
    17:00 +9°C° 0.2 mm 3 mps 754 mmHg 80%
    18:00 +8°C° 0.2 mm 3 mps 754 mmHg 78%
    19:00 +8°C° 0.2 mm 3 mps 754 mmHg 76%
    20:00 +8°C° 0 mm 3 mps 754 mmHg 75%
    21:00 +7°C° 0 mm 3 mps 754 mmHg 75%
    22:00 +7°C° 0 mm 3 mps 754 mmHg 74%
    23:00 +5°C° 0 mm 3 mps 754 mmHg 76%

    23 October, Tuesday

    Time Temperature Precipitation Wind Pressure Humidity
    00:00 +5°C° 0 mm 3 mps 754 mmHg 78%
    01:00 +5°C° 0 mm 3 mps 754 mmHg 80%
    02:00 +4°C° 0 mm 3 mps 754 mmHg 81%
    03:00 +4°C° 0 mm 3 mps 754 mmHg 82%
    04:00 +4°C° 0 mm 3 mps 754 mmHg 83%
    05:00 +4°C° 0 mm 3 mps 754 mmHg 83%
    06:00 +4°C° 0 mm 3 mps 753 mmHg 84%
    07:00 +4°C° 0 mm 3 mps 753 mmHg 84%
    08:00 +5°C° 0 mm 4 mps 752 mmHg 81%
    09:00 +6°C° 0 mm 5 mps 752 mmHg 77%
    10:00 +7°C° 0 mm 6 mps 751 mmHg 73%
    11:00 +6°C° 0.5 mm 7 mps 750 mmHg 75%
    12:00 +6°C° 0.5 mm 8 mps 748 mmHg 77%
    13:00 +6°C° 0.5 mm 8 mps 747 mmHg 78%
    14:00 +6°C° 1.4 mm 9 mps 746 mmHg 80%
    15:00 +6°C° 1.4 mm 9 mps 744 mmHg 82%
    16:00 +6°C° 1.4 mm 10 mps 742 mmHg 83%
    17:00 +7°C° 2 mm 10 mps 741 mmHg 84%
    18:00 +7°C° 2 mm 10 mps 739 mmHg 85%
    19:00 +8°C° 2 mm 10 mps 738 mmHg 85%
    20:00 +8°C° 2.2 mm 10 mps 737 mmHg 84%
    21:00 +9°C° 2.2 mm 10 mps 736 mmHg 83%
    22:00 +11°C° 2.2 mm 10 mps 734 mmHg 82%
    23:00 +9°C° 0.7 mm 10 mps 734 mmHg 79%

    24 October, Wednesday

    Time Temperature Precipitation Wind Pressure Humidity
    00:00 +9°C° 0.7 mm 10 mps 734 mmHg 75%
    01:00 +9°C° 0.7 mm 10 mps 734 mmHg 72%
    02:00 +8°C° 0.1 mm 9 mps 735 mmHg 73%
    03:00 +9°C° 0.1 mm 8 mps 736 mmHg 75%
    04:00 +8°C° 0.1 mm 7 mps 737 mmHg 76%
    05:00 +8°C° 0.1 mm 7 mps 738 mmHg 74%
    06:00 +6°C° 0.1 mm 7 mps 738 mmHg 72%
    07:00 +5°C° 0.1 mm 7 mps 739 mmHg 69%
    08:00 +6°C° 0 mm 7 mps 740 mmHg 63%
    09:00 +6°C° 0 mm 8 mps 740 mmHg 56%
    10:00 +6°C° 0 mm 8 mps 741 mmHg 50%
    11:00 +6°C° 0 mm 8 mps 741 mmHg 47%
    12:00 +7°C° 0 mm 8 mps 742 mmHg 44%
    13:00 +7°C° 0 mm 8 mps 742 mmHg 42%
    14:00 +6°C° 0 mm 7 mps 743 mmHg 44%
    15:00 +7°C° 0 mm 6 mps 743 mmHg 46%
    16:00 +6°C° 0 mm 5 mps 743 mmHg 48%
    17:00 +6°C° 0 mm 5 mps 743 mmHg 52%
    18:00 +6°C° 0 mm 4 mps 744 mmHg 56%
    19:00 +6°C° 0 mm 4 mps 744 mmHg 60%
    20:00 +5°C° 0 mm 4 mps 744 mmHg 62%
    21:00 +5°C° 0 mm 4 mps 744 mmHg 64%
    22:00 +5°C° 0 mm 4 mps 745 mmHg 66%
    23:00 +5°C° 0 mm 3 mps 744 mmHg 68%

    25 October, Thursday

    Time Temperature Precipitation Wind Pressure Humidity
    00:00 +4°C° 0 mm 3 mps 744 mmHg 71%
    01:00 +4°C° 0 mm 3 mps 744 mmHg 73%
    02:00 +4°C° 0 mm 3 mps 744 mmHg 75%
    03:00 +4°C° 0 mm 4 mps 743 mmHg 78%
    04:00 +5°C° 0 mm 4 mps 743 mmHg 80%
    05:00 +6°C° 0.2 mm 5 mps 742 mmHg 82%
    06:00 +8°C° 0.2 mm 6 mps 741 mmHg 84%
    07:00 +9°C° 0.2 mm 7 mps 740 mmHg 86%
    08:00 +9°C° 0.1 mm 8 mps 740 mmHg 82%
    09:00 +8°C° 0.1 mm 9 mps 740 mmHg 77%
    10:00 +8°C° 0.1 mm 9 mps 739 mmHg 73%
    11:00 +10°C° 0.1 mm 9 mps 739 mmHg 73%
    12:00 +10°C° 0.1 mm 9 mps 739 mmHg 73%
    13:00 +10°C° 0.1 mm 9 mps 739 mmHg 73%
    14:00 +9°C° 0.1 mm 10 mps 739 mmHg 72%
    15:00 +9°C° 0.1 mm 10 mps 738 mmHg 70%
    16:00 +9°C° 0.1 mm 10 mps 738 mmHg 69%
    17:00 +9°C° 0.1 mm 10 mps 738 mmHg 68%
    18:00 +10°C° 0.1 mm 9 mps 738 mmHg 68%
    19:00 +10°C° 0.1 mm 9 mps 737 mmHg 68%
    20:00 +8°C° 0.5 mm 9 mps 737 mmHg 68%
    21:00 +8°C° 0.5 mm 9 mps 737 mmHg 68%
    22:00 +8°C° 0.5 mm 10 mps 736 mmHg 69%
    23:00 +7°C° 0.2 mm 9 mps 737 mmHg 68%
    Show more